Sofia, Bulgaria

12:58 PM EEST on June 21, 2018 (GMT +0300)
Sofia

Weather History for LBSF - June, 2018

Change the Weather History Date:

Thursday, June 21, 2018

  Actual Average Record
Temperature  
Mean Temperature 67 °F -  
Max Temperature 80 °F 78 °F 91 °F (2012)
Min Temperature 56 °F 56 °F 50 °F (2000)
Cooling Degree Days 2    
Growing Degree Days 17 (Base 50)    
Moisture  
Dew Point 59 °F    
Average Humidity 75    
Maximum Humidity 94    
Minimum Humidity 48    
Precipitation  
Precipitation 0.00 in 0.08 in - ()
Sea Level Pressure  
Sea Level Pressure 30.11 in    
Wind  
Wind Speed 3 mph ()    
Max Wind Speed 6 mph    
Max Gust Speed -    
Visibility 8.3 miles    
Events      
Averages and records for this station are not official NWS values.
T = Trace of Precipitation, MM = Missing Value Source: Averaged Metar Reports

Daily Weather History Graph

Daily Weather History Graph

Search for Another Location

Airport or City:

Astronomy

Jun. 21, 2018 Rise Set
Actual Time 5:48 AM EEST 9:07 PM EEST
Civil Twilight 5:13 AM EEST 9:42 PM EEST
Nautical Twilight 4:28 AM EEST 10:28 PM EEST
Astronomical Twilight 3:32 AM EEST 11:24 PM EEST
Moon 2:25 PM EEST 2:04 AM EEST
Length of Visible Light 16h 29m
Length of Day
15h 19m
First Quarter, 60% of the Moon is Illuminated
Today
First Quarter
Jun 28
Full
Jul 6
Last Quarter
Jul 13
New
Jul 19
First Quarter

Hourly Weather History & Observations

Time (EEST) Temp. Heat Index Dew Point Humidity Pressure Visibility Wind Dir Wind Speed Gust Speed Precip Events Conditions
12:00 AM 67 °F - 59 °F 68% 30.08 in 14 mi SW 2.2 mph - -   Scattered Clouds
12:00 AM 69.8 °F - 59.0 °F 68% 30.15 in - SSW 4.6 mph - N/A   Clear
12:30 AM 68.0 °F - 57.2 °F 68% 30.15 in - South 3.5 mph - N/A   Clear
1:00 AM 68.0 °F - 57.2 °F 68% 30.12 in - SSW 5.8 mph - N/A   Clear
1:30 AM 68.0 °F - 57.2 °F 68% 30.12 in - SSW 5.8 mph - N/A   Clear
2:00 AM 64.4 °F - 59.0 °F 83% 30.12 in - ENE 3.5 mph - N/A   Clear
2:30 AM 64.4 °F - 57.2 °F 77% 30.12 in - Variable 2.3 mph - N/A   Clear
3:00 AM 65 °F - 55 °F 61% 30.10 in 14 mi Calm Calm - -   Scattered Clouds
3:00 AM 62.6 °F - 59.0 °F 88% 30.12 in - SSW 4.6 mph - N/A   Clear
3:30 AM 60.8 °F - 59.0 °F 94% 30.12 in - ESE 3.5 mph - N/A   Clear
4:00 AM 62.6 °F - 59.0 °F 88% 30.12 in - ENE 3.5 mph - N/A   Clear
4:30 AM 60.8 °F - 59.0 °F 94% 30.12 in - Variable 1.2 mph - N/A   Clear
5:00 AM 62.6 °F - 59.0 °F 88% 30.12 in - Calm Calm - N/A   Clear
5:30 AM 60.8 °F - 57.2 °F 88% 30.12 in - Calm Calm - N/A   Clear
6:00 AM 58 °F - 55 °F 86% 30.13 in 16 mi Calm Calm - -   Scattered Clouds
6:00 AM 60.8 °F - 57.2 °F 88% 30.12 in - Calm Calm - N/A   Clear
6:30 AM 62.6 °F - 57.2 °F 82% 30.12 in 5.0 mi Variable 1.2 mph - N/A   Unknown
7:00 AM 60.8 °F - 59.0 °F 94% 30.12 in 5.0 mi Variable 2.3 mph - N/A   Unknown
7:30 AM 62.6 °F - 59.0 °F 88% 30.12 in 5.0 mi North 3.5 mph - N/A   Unknown
8:00 AM 62.6 °F - 59.0 °F 88% 30.12 in 5.0 mi NW 3.5 mph - N/A   Unknown
8:30 AM 64.4 °F - 59.0 °F 83% 30.12 in 5.0 mi Calm Calm - N/A   Unknown
9:00 AM 65 °F - 58 °F 73% 30.06 in 16 mi Calm Calm - -   Scattered Clouds
9:00 AM 68.0 °F - 59.0 °F 73% 30.12 in - Variable 2.3 mph - N/A   Clear
9:30 AM 69.8 °F - 59.0 °F 68% 30.09 in 6.2 mi Variable 1.2 mph - N/A   Partly Cloudy
10:00 AM 71.6 °F - 59.0 °F 64% 30.09 in 6.2 mi ESE 3.5 mph - N/A   Partly Cloudy
10:30 AM 73.4 °F - 62.6 °F 69% 30.09 in 6.2 mi Variable 2.3 mph - N/A   Partly Cloudy
11:00 AM 75.2 °F - 62.6 °F 65% 30.09 in 6.2 mi ENE 4.6 mph - N/A   Partly Cloudy
11:30 AM 75.2 °F - 62.6 °F 65% 30.09 in 6.2 mi Variable 3.5 mph - N/A   Partly Cloudy
12:00 PM 76 °F - 61 °F 51% 29.99 in 12 mi North 2.2 mph - -   Partly Cloudy
12:00 PM 78.8 °F - 60.8 °F 54% 30.06 in 6.2 mi East 3.5 mph - N/A   Partly Cloudy
12:30 PM 80.6 °F 81.1 °F 59.0 °F 48% 30.06 in 6.2 mi East 5.8 mph - N/A   Scattered Clouds